Location: Unspecified
(64.9000°N, 0.0000°E)
Time: 18:21:18
(UTC+00:00)

Transit 2A Rocket - Pass Details

Date: 21 June 2019
Orbit: 588 x 915 km, 66.7° (Epoch: 16 July)

Event Time Altitude Azimuth Distance (km) Brightness Sun altitude
Rises 09:34:29 0° 166° (SSE) 3,541 9.0 42.2°
Reaches altitude 10° 09:37:56 10° 147° (SSE) 2,584 8.8 42.5°
Maximum altitude 09:41:33 17° 110° (ESE) 2,114 8.4 42.8°
Drops below altitude 10° 09:45:05 10° 73° (ENE) 2,512 8.1 43.0°
Sets 09:48:21 0° 53° (NE) 3,397 8.4 43.3°
